www.pogodaiklimat.ru

Погода и климат >> Архив погоды >> Канада >> Нунавут >> Шеперд-Бей


ПОГОДА в Шеперд-Бее

  • Прогноз погоды в Шеперд-Бее
  • Монитор погоды в Шеперд-Бее

АРХИВ ПОГОДЫ в Шеперд-Бее

Время (UTC), дата Ветер
(напр.,м/с)
 
Видим.   Явления Облачность Т
(С)
Тd
(С)
f
(%)
Тe
(С)
Тes
(С)
Комфортность P
(гПа)
Po
(гПа)
Тmin
(С)
Tmax
(С)
R
(мм)
R24
(мм)
S
(см)
06 13.02 В 10 н/о 10/10 100 м
[]
-34.2 -39.2 60 -52 -52 опасность
обморожения
1017.5 1011.5 -38.1 -32.5
09 13.02 В 9 н/о 10/10 200 м
[]
-34.6 -39.6 60 -52 -52 опасность
обморожения
1016.7 1010.7
12 13.02 ЮВ 6 н/о 10/10 50 м
[]
-35.2 -40.3 59 -50 -50 опасность
обморожения
1015.3 1009.3
15 13.02 В 7 н/о 10/10 50 м
[]
-35.7 -40.8 59 -52 -52 опасность
обморожения
1014.2 1008.2
18 13.02 ЮВ 6 н/о ясно -33.7 -38.6 61 -48 -48 опасность
обморожения
1013.1 1007.1
21 13.02 ЮВ 9 н/о ясно -33.9 -38.7 62 -51 -51 опасность
обморожения
1012.6 1006.6
00 14.02 В 9 н/о ясно -33.0 -37.8 62 -50 -50 опасность
обморожения
1012.9 1006.9
03 14.02 В 8 н/о 3/0
[]
-31.4 -36.0 64 -47 -47 опасность
обморожения
1012.6 1006.6
06 14.02 В 8 н/о ясно -34.2 -39.2 60 -51 -51 опасность
обморожения
1013.1 1007.1 -36.1 -31.3
09 14.02 ЮВ 5 н/о ясно -32.6 -37.3 63 -46 -46 опасность
обморожения
1014.3 1008.3
12 14.02 ЮВ 7 н/о ясно -35.1 -40.1 60 -51 -51 опасность
обморожения
1014.9 1008.9
15 14.02 В 9 н/о ясно -34.2 -39.2 60 -51 -51 опасность
обморожения
1016.0 1010.0
18 14.02 В 7 н/о 10/10 200 м
[]
-31.5 -36.1 64 -46 -46 опасность
обморожения
1017.2 1011.2
21 14.02 В 9 н/о 10/10 100 м
[]
-29.0 -33.2 67 -45 -45 опасность
обморожения
1018.3 1012.3
00 15.02 В 9 н/о 10/10 200 м
[]
-28.3 -32.4 68 -44 -44 опасность
обморожения
1019.1 1013.1
03 15.02 В 8 н/о 10/10 200 м
[]
-28.6 -32.7 68 -43 -43 опасность
обморожения
1019.9 1013.9
06 15.02 В 5 н/о 10/10 100 м
[]
-28.6 -32.7 68 -41 -41 опасность
обморожения
1020.8 1014.8 -35.6 -27.9
09 15.02 В 5 н/о 10/10 200 м
[]
-28.6 -32.7 68 -40 -40 опасность
обморожения
1021.4 1015.4
12 15.02 В 6 н/о 10/10 300 м
[]
-28.8 -33.0 67 -42 -42 опасность
обморожения
1022.2 1016.2
15 15.02 В 5 н/о 10/10 600 м
[]
-27.5 -31.4 69 -39 -39 опасность
обморожения
1022.7 1016.7
18 15.02 В 6 н/о 10/10 600 м
[]
-26.7 -30.6 69 -39 -39 опасность
обморожения
1023.4 1017.4
21 15.02 В 5 н/о 10/10 600 м
[]
-26.2 -30.0 70 -38 -38 опасность
обморожения
1024.2 1018.2
00 16.02 В 8 н/о 10/10 300 м
[]
-26.5 -30.3 70 -41 -41 опасность
обморожения
1024.8 1018.8
03 16.02 В 8 н/о 10/10 300 м
[]
-29.4 -33.6 67 -44 -44 опасность
обморожения
1025.1 1019.1
06 16.02 В 8 н/о 5/0
[]
-31.0 -35.5 64 -47 -47 опасность
обморожения
1026.2 1020.2 -31.7 -26.1
09 16.02 СВ 5 н/о 3/0
[]
-34.5 -39.4 61 -48 -48 опасность
обморожения
1027.2 1021.2
12 16.02 В 6 н/о ясно -34.7 -39.7 60 -49 -49 опасность
обморожения
1028.0 1022.0
15 16.02 В 8 н/о ясно -39.1 -44.5 56 -57 -57 опасность
обморожения
1028.6 1022.5
18 16.02 В 9 н/о ясно -38.7 -44.2 56 -58 -58 опасность
обморожения
1029.5 1023.4
21 16.02 В 9 н/о ясно -39.0 -44.6 55 -58 -58 опасность
обморожения
1030.1 1023.9
00 17.02 В 7 н/о 9/0
[]
-40.4 -46.1 54 -58 -58 опасность
обморожения
1031.0 1024.8
03 17.02 В 7 н/о ясно -39.4 -45.0 55 -56 -56 опасность
обморожения
1031.2 1025.0
06 17.02 В 7 н/о ясно -41.2 -59 -59 опасность
обморожения
1031.2 1025.0 -41.2 -30.4
09 17.02 В 7 н/о ясно -42.2 -60 -60 опасность
обморожения
1031.5 1025.3
12 17.02 В 8 н/о ясно -42.6 -62 -62 опасность
обморожения
1031.6 1025.4
15 17.02 В 8 н/о ясно -43.1 -63 -63 опасность
обморожения
1031.3 1025.1
18 17.02 В 8 н/о ясно -42.1 -61 -61 опасность
обморожения
1030.3 1024.1
21 17.02 В 8 н/о ясно -42.1 -61 -61 опасность
обморожения
1029.6 1023.4
00 18.02 В 8 н/о ясно -42.8 -62 -62 опасность
обморожения
1028.7 1022.4
03 18.02 В 9 н/о ясно -43.8 -64 -64 опасность
обморожения
1027.2 1020.9
06 18.02 ЮВ 7 н/о ясно -44.3 -63 -63 опасность
обморожения
1025.3 1019.1 -44.3 -40.9
09 18.02 В 7 н/о ясно -45.0 -64 -64 опасность
обморожения
1023.7 1017.5
12 18.02 В 9 н/о ясно -45.2 -66 -66 опасность
обморожения
1022.2 1016.0
15 18.02 В 8 н/о ясно -45.3 -65 -65 опасность
обморожения
1020.1 1013.9
18 18.02 В 6 н/о ясно -43.1 -60 -60 опасность
обморожения
1018.6 1012.4
21 18.02 В 8 н/о ясно -42.9 -62 -62 опасность
обморожения
1017.6 1011.4
00 19.02 В 8 н/о ясно -43.4 -63 -63 опасность
обморожения
1016.4 1010.2
03 19.02 В 8 н/о 3/0
[]
-43.8 -64 -64 опасность
обморожения
1015.2 1009.0
06 19.02 В 8 н/о ясно -43.8 -63 -63 опасность
обморожения
1014.0 1007.8 -45.7 -42.1
09 19.02 В 8 н/о ясно -43.8 -64 -64 опасность
обморожения
1013.0 1006.8
12 19.02 В 8 н/о ясно -43.0 -62 -62 опасность
обморожения
1012.7 1006.5
15 19.02 В 5 н/о 9/9 50 м
[]
-39.3 -45.1 54 -54 -54 опасность
обморожения
1012.0 1005.9
18 19.02 В 5 н/о 10/10 50 м
[]
-35.1 -40.2 59 -49 -49 опасность
обморожения
1012.2 1006.1
21 19.02 В 4 н/о 10/10 50 м
[]
-34.2 -39.2 60 -46 -46 опасность
обморожения
1012.6 1006.5
00 20.02 В 4 н/о 10/10 100 м
[]
-34.7 -39.7 60 -46 -46 опасность
обморожения
1013.1 1007.0
03 20.02 СВ 2 н/о 10/10 50 м
[]
-34.3 -39.2 61 -43 -43 опасность
обморожения
1013.1 1007.0

 

Местоположение метеостанции Шеперд-Бей (Нунавут, Канада): широта 68.82 долгота -93.43 высота над уровнем моря 42 м.

В архиве по умолчанию представлена погода в Шеперд-Бее за последнюю неделю. Архивные данные за месяц целиком и за предыдущие месяцы, начиная с января 2011 года, Вы можете получить, выбрав интересующий диапазон дат из раскрывающегося списка и нажав кнопку "Ввод!".


*Определитесь, кто Вы:
робот инопланетянин человек

Внимание! Время в таблицах - всемирное. Для получения местного времени необходимо прибавить поправку, которая равна -6 ч.

Смотрите также архив погоды в соседних городах и на ближайших метеорологических станциях:

Погода в Талойоаке (Нунавут, Канада) (81 км)
Погода в Джойа Хейвен (Нунавут, Канада) (100 км)
Погода в Кугааруке (Нунавут, Канада) (150 км)
Погода в Кам Фор (Нунавут, Канада) (157 км)
Погода на Острове Хат (Нунавут, Канада) (273 км)
Погода в Глеичене (Альберта, Канада) (332 км)
Погода в Вейджер Бэй (Нунавут, Канада) (369 км)
Погода в Кеймбридж-Бее (Нунавут, Канада) (466 км)
Погода в Кембридж Бэй (Нунавут, Канада) (466 км)
Погода в Холл Бич (Нунавут, Канада) (489 км)

Пояснения к столбцам:

Ветер - указаны скорость ветра в м/с - средняя за 10 мин, порывы в срок и между сроками (в фигурных скобках) и направление, откуда дует ветер: С - северный, СВ - северо-восточный, В - восточный, ЮВ - юго-восточный, Ю - южный, ЮЗ - юго-западный, З - западный, СЗ - северо-западный.
Видимость - горизонтальная дальность видимости в метрах или километрах. При видимости от 1 до 10 км при отсутствии осадков обычно наблюдается дымка, при ухудшении видимости до 1 км и менее - туман. В сухую погоду видимость может ухудшаться дымом, пылью или мглою.
Явления - указаны атмосферные явления, наблюдавшиеся в срок или в последний час перед сроком; фигурными скобками обозначены явления, наблюдавшиеся между сроками (за 1-3 часа до срока); квадратными скобками обозначены град или гололедные отложения с указанием их диаметра в мм.
Облачность - указаны через наклонную черту общая и нижняя облачность в баллах и высота нижней границы облаков в метрах; квадратными скобками обозначены формы облаков: Ci - перистые, Cs - перисто-слоистые, Cc - перисто-кучевые, Ac - высококучевые, As - высокослоистые, Sc - слоисто-кучевые, Ns - слоисто-дождевые, Cu - кучевые, Cb - кучево-дождевые. Подробнее классификацию облаков см. в Атласе облаков (PDF).
T - Температура воздуха - температура, измеренная на высоте 2 м над землей.
Td - Температура точки росы - температура, при понижении до которой содержащийся в воздухе водяной пар достигнет насыщения.
f - Относительная влажность воздуха - влажноcть воздуха, измеренная на высоте 2 м над землей.
Te - Эффективная температура - температура, которую ощущает одетый по сезону человек в тени. Характеристика душности погоды. При расчете учитывается влияние влажности воздуха и скорости ветра на теплоощущения человека.
Tes - Эффективная температура на солнце - температура, которую ощущает человек, с поправкой на солнечный нагрев. Характеристика знойности погоды. Зависит от высоты солнца над горизонтом, облачности и скорости ветра. Ночью, в пасмурную погоду, а также при ветре 12 м/с и более поправка равна нулю.
P - Атмосферное давление - приведенное к уровню моря атмосферное давление.
Po - Атмосферное давление - измеренное на уровне метеостанции атмосферное давление.
Tmin - Минимальная температура - минимум температуры воздуха на высоте 2 м над землей.
Tmax - Максимальная температура - максимум температуры воздуха на высоте 2 м над землей.
R - Количество осадков - Количество выпавших осадков за период времени, мм. При наведении курсора мыши на число - период времени, за который выпало указанное количество осадков.
R24 - Количество осадков - Количество выпавших осадков за 24 часа, мм.
S - Снежный покров - Высота снежного покрова, см. При наведении курсора мыши на число - состояние снежного покрова и степень покрытия местности в баллах.